User: anonymous   Login
Location: Brno
(49.2000°N, 16.6330°E)
Time: 18:31:52
(UTC+02:00)
Language:

BREEZE M DEB (TANK) - Orbit

View from above orbital plane
View from above orbital plane
View from above satellite
View from above satellite

Ground track
Ground track

The orbit data is extracted from the following two-line orbital elements,

1 28359U 04022B   17263.28994370  .00001674  00000-0  24020-3 0  9995
2 28359  49.5446 311.8963 4658905 309.0328  17.9844  6.20300983291189
Epoch (UTC): 20 September 2017 06:57:31
Eccentricity: 0.4658905
inclination: 49.5446°
perigee height: 305 km
apogee height: 11963 km
right ascension of ascending node: 311.8963°
argument of perigee: 309.0328°
revolutions per day: 6.20300983
mean anomaly at epoch: 17.9844°
orbit number at epoch: 29118

The dashed part of the orbit path shows where the satellite is in the earth's shadow,  

DLR